UAE72V OMDB-EGKK

Flight info

Callsign UAE72V
Flight time N/A
Altitude 34000
Route RIDAP M557 TUMAK L602 GADSI M860 SEPTU DCT VUSEB/N0489F360 M860 NINVA UM860 ODALI UL852 NEGEM L852 KOMAN DCT TEGRI DCT BEGLA DCT DEXIT/N0482F380 DCT INBED DCT BOMBI DCT ADKUV DCT KENUM DCT DENUT L610 TEBRA
Aircraft B77W/H-SDE1E2E3FGHIJ2J3J4J5M1RWXY/LB1D1

Departure

Time 2026-05-06 03:04
Airport Dubai International Airport (OMDB)

Arrival

Time N/A
Airport London Gatwick Airport (EGKK)
Time Latitude Longitude Altitude Speed Heading
2026-05-06 02:15 25.24502 55.36903 48 ft 0 kts 121°
2026-05-06 02:44 25.24508 55.36892 48 ft 2 kts 121°
2026-05-06 02:45 25.24517 55.36878 47 ft 2 kts 120°
2026-05-06 02:45 25.24521 55.36869 46 ft 2 kts 120°
2026-05-06 02:45 25.24528 55.36854 46 ft 2 kts 104°
2026-05-06 02:45 25.24530 55.36838 46 ft 2 kts 89°
2026-05-06 02:46 25.24529 55.36821 46 ft 2 kts 75°
2026-05-06 02:46 25.24524 55.36806 46 ft 2 kts 62°
2026-05-06 02:46 25.24516 55.36792 44 ft 2 kts 47°
2026-05-06 02:46 25.24505 55.36781 43 ft 1 kts 33°
2026-05-06 02:47 25.24502 55.36779 43 ft 1 kts 30°
2026-05-06 02:47 25.24519 55.36791 44 ft 1 kts 34°
2026-05-06 02:47 25.24521 55.36793 44 ft 0 kts 34°
2026-05-06 02:50 25.24523 55.36794 45 ft 0 kts 34°
2026-05-06 02:51 25.24534 55.36802 45 ft 3 kts 33°
2026-05-06 02:51 25.24582 55.36833 41 ft 11 kts 31°
2026-05-06 02:51 25.24660 55.36886 38 ft 12 kts 31°
2026-05-06 02:51 25.24701 55.36913 44 ft 1 kts 31°
2026-05-06 02:52 25.24703 55.36914 44 ft 0 kts 31°
2026-05-06 02:52 25.24719 55.36926 47 ft 5 kts 31°
2026-05-06 02:52 25.24754 55.36947 50 ft 8 kts 30°
2026-05-06 02:52 25.24767 55.37007 50 ft 8 kts 110°
2026-05-06 02:53 25.24735 55.37064 51 ft 8 kts 122°
2026-05-06 02:53 25.24701 55.37126 51 ft 9 kts 121°
2026-05-06 02:53 25.24663 55.37195 52 ft 11 kts 121°
2026-05-06 02:53 25.24617 55.37278 55 ft 13 kts 121°
2026-05-06 02:54 25.24563 55.37374 56 ft 16 kts 121°
2026-05-06 02:54 25.24499 55.37489 55 ft 17 kts 121°
2026-05-06 02:54 25.24437 55.37602 52 ft 17 kts 121°
2026-05-06 02:54 25.24377 55.37710 53 ft 14 kts 121°
2026-05-06 02:55 25.24331 55.37793 56 ft 10 kts 121°
2026-05-06 02:55 25.24295 55.37857 57 ft 9 kts 121°
2026-05-06 02:55 25.24261 55.37919 58 ft 8 kts 121°
2026-05-06 02:55 25.24231 55.37974 58 ft 8 kts 120°
2026-05-06 02:56 25.24214 55.38023 58 ft 2 kts 89°
2026-05-06 02:56 25.24214 55.38024 58 ft 0 kts 88°
2026-05-06 03:00 25.24215 55.38027 59 ft 1 kts 84°
2026-05-06 03:00 25.24219 55.38044 59 ft 3 kts 69°
2026-05-06 03:01 25.24236 55.38071 59 ft 5 kts 40°
2026-05-06 03:01 25.24283 55.38102 59 ft 9 kts 30°
2026-05-06 03:01 25.24353 55.38147 58 ft 12 kts 31°
2026-05-06 03:01 25.24422 55.38193 58 ft 10 kts 31°
2026-05-06 03:02 25.24477 55.38230 59 ft 8 kts 31°
2026-05-06 03:02 25.24524 55.38261 60 ft 7 kts 31°
2026-05-06 03:02 25.24574 55.38295 60 ft 9 kts 31°
2026-05-06 03:02 25.24619 55.38320 59 ft 5 kts
2026-05-06 03:03 25.24656 55.38299 58 ft 7 kts 308°
2026-05-06 03:03 25.24683 55.38252 58 ft 8 kts 302°
2026-05-06 03:03 25.24757 55.38120 58 ft 42 kts 301°
2026-05-06 03:03 25.25033 55.37615 54 ft 110 kts 303°
2026-05-06 03:04 25.25543 55.36700 49 ft 168 kts 300°
2026-05-06 03:04 25.26239 55.35451 248 ft 202 kts 299°
2026-05-06 03:04 25.26712 55.33999 811 ft 210 kts 275°
2026-05-06 03:04 25.26815 55.32343 1398 ft 222 kts 271°
2026-05-06 03:05 25.26914 55.30600 1791 ft 233 kts 274°
2026-05-06 03:05 25.27219 55.28780 2069 ft 252 kts 283°
2026-05-06 03:05 25.27711 55.26859 2427 ft 267 kts 285°
2026-05-06 03:05 25.28254 55.24892 2983 ft 274 kts 287°
2026-05-06 03:06 25.28833 55.22894 3668 ft 274 kts 288°
2026-05-06 03:06 25.29415 55.20871 4254 ft 279 kts 284°
2026-05-06 03:06 25.29888 55.18804 4941 ft 279 kts 284°
2026-05-06 03:06 25.30383 55.16744 5581 ft 280 kts 287°
2026-05-06 03:07 25.30917 55.14650 6210 ft 281 kts 287°
2026-05-06 03:07 25.31452 55.12590 6789 ft 284 kts 287°
2026-05-06 03:07 25.32005 55.10468 7382 ft 286 kts 287°
2026-05-06 03:07 25.32549 55.08381 7947 ft 288 kts 287°
2026-05-06 03:08 25.33104 55.06249 8472 ft 291 kts 287°
2026-05-06 03:08 25.33671 55.04075 9006 ft 294 kts 287°
2026-05-06 03:08 25.34230 55.01924 9536 ft 296 kts 287°
2026-05-06 03:08 25.34800 54.99733 10056 ft 299 kts 287°
2026-05-06 03:09 25.35388 54.97471 10345 ft 313 kts 287°
2026-05-06 03:09 25.36002 54.95108 10509 ft 330 kts 287°
2026-05-06 03:09 25.36650 54.92613 10684 ft 348 kts 287°
2026-05-06 03:09 25.37331 54.89986 10869 ft 364 kts 287°
2026-05-06 03:10 25.38048 54.87218 11069 ft 380 kts 287°
2026-05-06 03:10 25.38782 54.84382 11302 ft 393 kts 287°
2026-05-06 03:10 25.39538 54.81460 11754 ft 399 kts 287°
2026-05-06 03:10 25.40301 54.78504 12313 ft 403 kts 287°
2026-05-06 03:11 25.41081 54.75480 12860 ft 408 kts 287°
2026-05-06 03:11 25.41856 54.72477 13430 ft 413 kts 287°
2026-05-06 03:11 25.42647 54.69405 14077 ft 417 kts 287°
2026-05-06 03:11 25.43433 54.66353 14776 ft 419 kts 287°
2026-05-06 03:12 25.44233 54.63240 15513 ft 422 kts 287°
2026-05-06 03:12 25.45040 54.60102 16221 ft 425 kts 287°
2026-05-06 03:12 25.45845 54.56966 16885 ft 428 kts 287°
2026-05-06 03:12 25.46660 54.53787 17571 ft 431 kts 287°
2026-05-06 03:13 25.47472 54.50614 18259 ft 433 kts 287°
2026-05-06 03:13 25.48288 54.47429 18930 ft 435 kts 286°
2026-05-06 03:13 25.49114 54.44196 19621 ft 436 kts 286°
2026-05-06 03:13 25.49931 54.40997 20242 ft 439 kts 286°
2026-05-06 03:14 25.50769 54.37714 20879 ft 441 kts 286°
2026-05-06 03:14 25.51595 54.34474 21499 ft 443 kts 285°
2026-05-06 03:14 25.52428 54.31201 22079 ft 446 kts 285°
2026-05-06 03:14 25.53269 54.27895 22683 ft 448 kts 285°
2026-05-06 03:15 25.54113 54.24574 23250 ft 450 kts 285°
2026-05-06 03:15 25.55032 54.21238 23793 ft 452 kts 287°
2026-05-06 03:15 25.56001 54.17975 24338 ft 454 kts 287°
2026-05-06 03:15 25.56996 54.14624 24913 ft 455 kts 287°
2026-05-06 03:16 25.57973 54.11321 25442 ft 457 kts 287°
2026-05-06 03:16 25.58955 54.07989 26001 ft 458 kts 287°
2026-05-06 03:16 25.59935 54.04630 26535 ft 459 kts 287°
2026-05-06 03:16 25.60893 54.01285 27002 ft 462 kts 286°
2026-05-06 03:17 25.61874 53.97849 27496 ft 464 kts 286°
2026-05-06 03:17 25.62837 53.94471 28011 ft 466 kts 286°
2026-05-06 03:17 25.63812 53.91047 28528 ft 467 kts 286°
2026-05-06 03:17 25.64783 53.87635 29027 ft 469 kts 285°
2026-05-06 03:18 25.65762 53.84191 29604 ft 468 kts 285°
2026-05-06 03:18 25.66730 53.80783 30298 ft 465 kts 285°
2026-05-06 03:18 25.67687 53.77412 31006 ft 460 kts 285°
2026-05-06 03:18 25.68642 53.74045 31687 ft 456 kts 285°
2026-05-06 03:19 25.69588 53.70699 32304 ft 453 kts 284°
2026-05-06 03:19 25.70519 53.67390 32855 ft 451 kts 284°
2026-05-06 03:19 25.71447 53.64086 33377 ft 451 kts 284°
2026-05-06 03:19 25.72380 53.60765 33783 ft 451 kts 284°
2026-05-06 03:20 25.74235 53.54147 33809 ft 450 kts 284°
2026-05-06 03:20 25.76084 53.47552 33811 ft 449 kts 284°
2026-05-06 03:21 25.77943 53.40927 33807 ft 449 kts 284°
2026-05-06 03:21 25.79785 53.34351 33809 ft 449 kts 284°
2026-05-06 03:22 25.81628 53.27757 33818 ft 449 kts 284°
2026-05-06 03:22 25.83478 53.21130 33818 ft 449 kts 284°
2026-05-06 03:23 25.85752 53.14693 33810 ft 450 kts 290°
2026-05-06 03:23 25.88334 53.08372 33814 ft 451 kts 290°
2026-05-06 03:24 25.90921 53.02023 33809 ft 451 kts 290°
2026-05-06 03:24 25.93494 52.95693 33807 ft 451 kts 290°
2026-05-06 03:25 25.96057 52.89373 33805 ft 451 kts 290°
2026-05-06 03:25 25.98625 52.83018 33813 ft 449 kts 290°
2026-05-06 03:26 26.01176 52.76713 33822 ft 451 kts 290°
2026-05-06 03:26 26.03869 52.70421 33817 ft 452 kts 292°
2026-05-06 03:27 26.06704 52.64189 33807 ft 452 kts 292°
2026-05-06 03:27 26.09533 52.57935 33803 ft 453 kts 292°
2026-05-06 03:28 26.12327 52.51736 33802 ft 451 kts 292°
2026-05-06 03:28 26.15157 52.45473 33800 ft 451 kts 292°
2026-05-06 03:29 26.17954 52.39269 33801 ft 451 kts 292°
2026-05-06 03:29 26.20755 52.33044 33813 ft 450 kts 291°
2026-05-06 03:30 26.23511 52.26818 33814 ft 450 kts 291°
2026-05-06 03:30 26.26211 52.20567 33815 ft 450 kts 291°
2026-05-06 03:31 26.28916 52.14303 33814 ft 448 kts 291°
2026-05-06 03:31 26.31604 52.08075 33812 ft 447 kts 291°
2026-05-06 03:32 26.34306 52.01817 33811 ft 448 kts 291°
2026-05-06 03:32 26.36995 51.95588 33812 ft 449 kts 290°
2026-05-06 03:33 26.39288 51.89142 33809 ft 447 kts 286°
2026-05-06 03:33 26.41456 51.82675 33816 ft 447 kts 286°
2026-05-06 03:34 26.43620 51.76215 33808 ft 445 kts 286°
2026-05-06 03:34 26.45784 51.69747 33816 ft 447 kts 286°
2026-05-06 03:35 26.47948 51.63273 33813 ft 445 kts 286°
2026-05-06 03:35 26.50096 51.56824 33812 ft 445 kts 286°
2026-05-06 03:36 26.52244 51.50366 33816 ft 445 kts 286°
2026-05-06 03:36 26.54395 51.43885 33823 ft 445 kts 286°
2026-05-06 03:37 26.56531 51.37440 33821 ft 445 kts 285°
2026-05-06 03:37 26.58678 51.30950 33840 ft 444 kts 285°
2026-05-06 03:38 26.60814 51.24498 33838 ft 444 kts 285°
2026-05-06 03:38 26.62959 51.18021 33839 ft 444 kts 285°
2026-05-06 03:39 26.65096 51.11552 33842 ft 445 kts 285°
2026-05-06 03:39 26.67219 51.05119 33842 ft 445 kts 285°
2026-05-06 03:40 26.69342 50.98634 33845 ft 444 kts 284°
2026-05-06 03:40 26.71420 50.92137 33839 ft 445 kts 284°
2026-05-06 03:41 26.73502 50.85618 33840 ft 445 kts 284°
2026-05-06 03:41 26.75572 50.79133 33838 ft 445 kts 284°
2026-05-06 03:42 26.77640 50.72641 33827 ft 444 kts 284°
2026-05-06 03:42 26.79874 50.66179 33823 ft 449 kts 292°
2026-05-06 03:43 26.83481 50.60440 33824 ft 458 kts 302°
2026-05-06 03:43 26.87525 50.54903 33816 ft 458 kts 302°
2026-05-06 03:44 26.91549 50.49389 33814 ft 458 kts 302°
2026-05-06 03:44 26.95848 50.44093 33813 ft 463 kts 307°
2026-05-06 03:45 27.00281 50.38897 33820 ft 462 kts 306°
2026-05-06 03:45 27.04714 50.33660 33835 ft 460 kts 306°
2026-05-06 03:46 27.09067 50.28440 33837 ft 460 kts 305°
2026-05-06 03:46 27.13411 50.23199 33830 ft 459 kts 305°
2026-05-06 03:47 27.18123 50.18280 33831 ft 468 kts 315°
2026-05-06 03:47 27.23370 50.13946 33828 ft 469 kts 315°
2026-05-06 03:48 27.28628 50.09612 33825 ft 470 kts 315°
2026-05-06 03:48 27.33886 50.05271 33828 ft 469 kts 315°
2026-05-06 03:49 27.39083 50.00870 33827 ft 468 kts 313°
2026-05-06 03:49 27.44227 49.96327 33826 ft 467 kts 314°
2026-05-06 03:50 27.49348 49.91807 33828 ft 469 kts 313°
2026-05-06 03:50 27.54469 49.87288 33830 ft 468 kts 313°
2026-05-06 03:51 27.59560 49.82794 33832 ft 468 kts 313°
2026-05-06 03:51 27.64680 49.78271 33830 ft 467 kts 313°
2026-05-06 03:52 27.69787 49.73754 33830 ft 466 kts 313°
2026-05-06 03:52 27.74910 49.69216 33834 ft 471 kts 313°
2026-05-06 03:53 27.80004 49.64698 33831 ft 465 kts 313°
2026-05-06 03:53 27.85113 49.60134 33831 ft 467 kts 313°
2026-05-06 03:54 27.90188 49.55600 33834 ft 467 kts 313°
2026-05-06 03:54 27.95259 49.51062 33837 ft 466 kts 313°
2026-05-06 03:55 28.00359 49.46494 33853 ft 466 kts 313°
2026-05-06 03:55 28.05420 49.41930 33856 ft 466 kts 312°
2026-05-06 03:56 28.10457 49.37332 33855 ft 465 kts 312°
2026-05-06 03:56 28.15461 49.32759 33865 ft 465 kts 311°
2026-05-06 03:57 28.20503 49.28148 33866 ft 464 kts 311°
2026-05-06 03:57 28.25521 49.23552 33867 ft 465 kts 311°
2026-05-06 03:58 28.30528 49.18966 33867 ft 462 kts 311°
2026-05-06 03:58 28.35555 49.14350 33867 ft 466 kts 311°
2026-05-06 03:59 28.40583 49.09747 33861 ft 464 kts 313°
2026-05-06 03:59 28.45989 49.05594 33869 ft 474 kts 316°
2026-05-06 04:00 28.51462 49.01470 33871 ft 470 kts 316°
2026-05-06 04:00 28.56867 48.97356 33869 ft 470 kts 316°
2026-05-06 04:01 28.62306 48.93195 33868 ft 470 kts 316°
2026-05-06 04:01 28.67718 48.89039 33872 ft 471 kts 316°
2026-05-06 04:02 28.73135 48.84871 33869 ft 470 kts 316°
2026-05-06 04:02 28.78561 48.80687 33872 ft 470 kts 316°
2026-05-06 04:03 28.83974 48.76526 33878 ft 470 kts 316°
2026-05-06 04:03 28.89364 48.72402 33877 ft 468 kts 316°
2026-05-06 04:04 28.94803 48.68230 33883 ft 470 kts 316°
2026-05-06 04:04 29.00188 48.64096 33884 ft 470 kts 316°
2026-05-06 04:05 29.05601 48.59935 33882 ft 465 kts 316°
2026-05-06 04:05 29.10990 48.55785 33879 ft 467 kts 316°
2026-05-06 04:06 29.16412 48.51601 33885 ft 470 kts 316°
2026-05-06 04:06 29.21800 48.47444 33885 ft 467 kts 316°
2026-05-06 04:07 29.27225 48.43249 33885 ft 469 kts 315°
2026-05-06 04:07 29.32590 48.39098 33889 ft 466 kts 315°
2026-05-06 04:08 29.37962 48.34933 33888 ft 468 kts 315°
2026-05-06 04:08 29.43366 48.30741 33913 ft 467 kts 315°
2026-05-06 04:09 29.48971 48.26890 33905 ft 475 kts 320°
2026-05-06 04:09 29.54733 48.23161 33912 ft 474 kts 320°
2026-05-06 04:10 29.60477 48.19413 33911 ft 475 kts 319°
2026-05-06 04:10 29.66181 48.15671 33911 ft 472 kts 319°
2026-05-06 04:11 29.71923 48.11887 33919 ft 475 kts 319°
2026-05-06 04:11 29.77622 48.08125 33914 ft 474 kts 319°
2026-05-06 04:12 29.83351 48.04333 33914 ft 475 kts 319°
2026-05-06 04:12 29.89093 48.00528 33915 ft 474 kts 319°
2026-05-06 04:13 29.94768 47.96761 33922 ft 476 kts 319°
2026-05-06 04:13 30.00490 47.92856 33915 ft 467 kts 314°
2026-05-06 04:14 30.02968 47.90557 33915 ft 455 kts 306°
2026-05-06 04:14 30.05139 47.87915 33924 ft 448 kts 301°
2026-05-06 04:14 30.09227 47.82478 33922 ft 449 kts 301°
2026-05-06 04:15 30.13371 47.76946 33912 ft 450 kts 301°
2026-05-06 04:15 30.17450 47.71496 33916 ft 449 kts 301°
2026-05-06 04:16 30.21541 47.66023 33914 ft 448 kts 301°
2026-05-06 04:16 30.25595 47.60590 33915 ft 448 kts 301°
2026-05-06 04:17 30.29676 47.55114 33914 ft 449 kts 301°
2026-05-06 04:17 30.33768 47.49614 33909 ft 450 kts 301°
2026-05-06 04:18 30.37852 47.44119 33910 ft 450 kts 301°
2026-05-06 04:18 30.41936 47.38616 33915 ft 451 kts 301°
2026-05-06 04:19 30.46057 47.33055 33939 ft 452 kts 300°
2026-05-06 04:19 30.50129 47.27555 33937 ft 450 kts 300°
2026-05-06 04:20 30.54191 47.22057 33945 ft 450 kts 300°
2026-05-06 04:20 30.58669 47.16827 33949 ft 466 kts 310°
2026-05-06 04:21 30.63729 47.12111 33944 ft 465 kts 310°
2026-05-06 04:21 30.68795 47.07393 33938 ft 467 kts 310°
2026-05-06 04:22 30.73829 47.02696 33942 ft 462 kts 310°
2026-05-06 04:23 30.81361 46.95641 33944 ft 466 kts 310°
2026-05-06 04:23 30.86422 46.90896 33945 ft 462 kts 310°
2026-05-06 04:24 30.91452 46.86166 33938 ft 468 kts 310°
2026-05-06 04:24 30.96501 46.81417 33947 ft 464 kts 310°
2026-05-06 04:25 31.01507 46.76701 33946 ft 464 kts 310°
2026-05-06 04:25 31.06541 46.71946 33958 ft 467 kts 311°
2026-05-06 04:26 31.11622 46.67146 33940 ft 467 kts 311°
2026-05-06 04:26 31.16655 46.62384 33942 ft 464 kts 310°
2026-05-06 04:27 31.21707 46.57594 33939 ft 467 kts 311°
2026-05-06 04:27 31.26749 46.52809 33944 ft 467 kts 311°
2026-05-06 04:28 31.31804 46.48004 33938 ft 468 kts 311°
2026-05-06 04:28 31.36844 46.43209 33938 ft 467 kts 311°
2026-05-06 04:29 31.41873 46.38414 33948 ft 467 kts 311°
2026-05-06 04:29 31.46886 46.33631 33955 ft 467 kts 310°
2026-05-06 04:30 31.51948 46.28791 33968 ft 465 kts 310°
2026-05-06 04:30 31.56956 46.23998 33955 ft 465 kts 310°
2026-05-06 04:31 31.62000 46.19161 33960 ft 466 kts 310°
2026-05-06 04:31 31.66998 46.14365 33957 ft 463 kts 310°
2026-05-06 04:32 31.71999 46.09556 33956 ft 464 kts 310°
2026-05-06 04:32 31.76942 46.04772 33957 ft 461 kts 310°
2026-05-06 04:33 31.81885 45.99863 33960 ft 464 kts 310°
2026-05-06 04:33 31.86793 45.94989 33965 ft 463 kts 310°
2026-05-06 04:34 31.91726 45.90086 33971 ft 461 kts 310°
2026-05-06 04:34 31.96652 45.85181 33967 ft 465 kts 310°
2026-05-06 04:35 32.01581 45.80272 33961 ft 463 kts 310°
2026-05-06 04:35 32.06508 45.75357 33960 ft 462 kts 310°
2026-05-06 04:36 32.11406 45.70460 33952 ft 464 kts 310°
2026-05-06 04:36 32.16362 45.65502 33954 ft 462 kts 310°
2026-05-06 04:37 32.21253 45.60600 33967 ft 463 kts 310°
2026-05-06 04:37 32.26146 45.55691 33953 ft 461 kts 310°
2026-05-06 04:38 32.31063 45.50746 33947 ft 464 kts 310°
2026-05-06 04:38 32.36003 45.45776 33970 ft 465 kts 310°
2026-05-06 04:39 32.40905 45.40834 33975 ft 464 kts 310°
2026-05-06 04:39 32.45804 45.35890 33980 ft 463 kts 310°
2026-05-06 04:40 32.50735 45.30904 34000 ft 464 kts 309°
2026-05-06 04:40 32.55716 45.25996 34010 ft 470 kts 314°
2026-05-06 04:41 32.61181 45.21630 33997 ft 474 kts 316°
2026-05-06 04:41 32.66665 45.17298 34002 ft 472 kts 316°
2026-05-06 04:42 32.72134 45.12959 34006 ft 476 kts 316°
2026-05-06 04:42 32.77604 45.08617 33995 ft 471 kts 316°
2026-05-06 04:43 32.83097 45.04241 33996 ft 474 kts 316°
2026-05-06 04:43 32.88555 44.99889 34007 ft 474 kts 316°
2026-05-06 04:44 32.94051 44.95498 34002 ft 473 kts 316°
2026-05-06 04:44 32.99494 44.91144 34001 ft 473 kts 316°
2026-05-06 04:45 33.04984 44.86743 34003 ft 475 kts 316°
2026-05-06 04:45 33.10473 44.82338 34000 ft 474 kts 316°
2026-05-06 04:46 33.15983 44.77909 33989 ft 474 kts 316°
2026-05-06 04:46 33.21650 44.73786 33986 ft 488 kts 326°
2026-05-06 04:46 33.24876 44.72368 33987 ft 503 kts 334°
2026-05-06 04:47 33.28326 44.71307 33992 ft 506 kts 336°
2026-05-06 04:47 33.35150 44.69326 33993 ft 506 kts 336°
2026-05-06 04:48 33.41995 44.67327 33992 ft 506 kts 336°
2026-05-06 04:48 33.48831 44.65317 33991 ft 505 kts 336°
2026-05-06 04:49 33.55677 44.63298 33995 ft 505 kts 336°
2026-05-06 04:49 33.62531 44.61270 33998 ft 506 kts 336°
2026-05-06 04:50 33.69380 44.59239 33998 ft 505 kts 336°
2026-05-06 04:50 33.76230 44.57203 34000 ft 507 kts 336°
2026-05-06 04:51 33.83084 44.55163 33999 ft 506 kts 336°
2026-05-06 04:51 33.89936 44.53120 33999 ft 507 kts 336°
2026-05-06 04:52 33.96773 44.51077 33999 ft 506 kts 336°
2026-05-06 04:52 34.03650 44.49020 34001 ft 506 kts 336°
2026-05-06 04:53 34.10497 44.46967 34001 ft 507 kts 336°
2026-05-06 04:53 34.17359 44.44907 33990 ft 505 kts 336°
2026-05-06 04:54 34.24213 44.42844 33993 ft 507 kts 336°
2026-05-06 04:54 34.31027 44.40792 33997 ft 508 kts 336°
2026-05-06 04:55 34.37933 44.38707 33994 ft 508 kts 336°
2026-05-06 04:55 34.44768 44.36643 33997 ft 506 kts 336°
2026-05-06 04:56 34.51642 44.34562 34006 ft 505 kts 335°
2026-05-06 04:56 34.58482 44.32487 34021 ft 505 kts 335°
2026-05-06 04:57 34.65272 44.30426 34023 ft 502 kts 335°
2026-05-06 04:57 34.72094 44.28346 34024 ft 506 kts 335°
2026-05-06 04:58 34.78917 44.26270 34027 ft 500 kts 335°
2026-05-06 04:58 34.85696 44.24196 34027 ft 504 kts 335°
2026-05-06 04:59 34.92451 44.22131 34029 ft 501 kts 335°
2026-05-06 04:59 34.99255 44.20046 34029 ft 501 kts 335°
2026-05-06 05:00 35.06020 44.17969 34033 ft 502 kts 335°
2026-05-06 05:00 35.12837 44.15874 34023 ft 501 kts 335°
2026-05-06 05:01 35.19634 44.13779 34024 ft 501 kts 335°
2026-05-06 05:01 35.26426 44.11684 34020 ft 502 kts 335°
2026-05-06 05:02 35.33165 44.09602 34023 ft 501 kts 335°
2026-05-06 05:02 35.39967 44.07495 34023 ft 502 kts 335°
2026-05-06 05:03 35.46738 44.05396 34024 ft 500 kts 335°
2026-05-06 05:03 35.53485 44.03298 34023 ft 503 kts 335°
2026-05-06 05:04 35.60283 44.01184 34026 ft 501 kts 335°
2026-05-06 05:04 35.67021 43.99084 34029 ft 500 kts 335°
2026-05-06 05:05 35.73824 43.96957 34037 ft 503 kts 335°
2026-05-06 05:05 35.80602 43.94838 34042 ft 502 kts 335°
2026-05-06 05:06 35.87331 43.92728 34041 ft 503 kts 335°
2026-05-06 05:06 35.94140 43.90591 34045 ft 502 kts 335°
2026-05-06 05:07 36.00880 43.88472 34045 ft 501 kts 335°
2026-05-06 05:07 36.07648 43.86338 34046 ft 503 kts 335°
2026-05-06 05:08 36.14503 43.84175 34032 ft 503 kts 335°
2026-05-06 05:08 36.21291 43.82029 34029 ft 502 kts 335°
2026-05-06 05:09 36.28022 43.79754 34031 ft 494 kts 329°
2026-05-06 05:09 36.34337 43.76568 34033 ft 490 kts 327°
2026-05-06 05:10 36.40619 43.73312 34037 ft 491 kts 327°
2026-05-06 05:10 36.46902 43.70051 34039 ft 487 kts 327°
2026-05-06 05:11 36.53152 43.66799 34040 ft 490 kts 327°
2026-05-06 05:11 36.59421 43.63534 34046 ft 489 kts 327°
2026-05-06 05:12 36.65705 43.60253 34050 ft 490 kts 327°
2026-05-06 05:12 36.71993 43.56967 34039 ft 490 kts 327°
2026-05-06 05:13 36.78256 43.53608 34043 ft 487 kts 326°
2026-05-06 05:13 36.84454 43.50131 34046 ft 489 kts 326°
2026-05-06 05:14 36.90649 43.46658 34036 ft 486 kts 326°
2026-05-06 05:14 36.96807 43.43203 34172 ft 486 kts 326°
2026-05-06 05:15 37.02987 43.39731 34375 ft 487 kts 326°
2026-05-06 05:15 37.06105 43.37978 34502 ft 487 kts 326°
2026-05-06 05:15 37.09201 43.36238 34625 ft 485 kts 326°
2026-05-06 05:15 37.12290 43.34499 34744 ft 485 kts 326°
2026-05-06 05:16 37.15379 43.32758 34876 ft 486 kts 326°
2026-05-06 05:16 37.18467 43.31015 35010 ft 486 kts 326°
2026-05-06 05:16 37.21560 43.29272 35134 ft 481 kts 326°
2026-05-06 05:16 37.24623 43.27543 35262 ft 481 kts 326°
2026-05-06 05:17 37.27661 43.25824 35404 ft 481 kts 326°
2026-05-06 05:17 37.30571 43.23883 35565 ft 470 kts 318°
2026-05-06 05:17 37.33205 43.21473 35751 ft 461 kts 310°
2026-05-06 05:17 37.35478 43.18710 35920 ft 453 kts 303°
2026-05-06 05:18 37.37398 43.15647 36019 ft 447 kts 296°
2026-05-06 05:18 37.40453 43.08903 36274 ft 441 kts 291°
2026-05-06 05:18 37.41912 43.05487 36112 ft 441 kts 291°
2026-05-06 05:19 37.43351 43.02109 36061 ft 437 kts 291°
2026-05-06 05:19 37.46203 42.95399 35852 ft 440 kts 291°
2026-05-06 05:19 37.47657 42.91974 36048 ft 442 kts 291°
2026-05-06 05:20 37.49107 42.88555 36062 ft 442 kts 291°
2026-05-06 05:20 37.51987 42.81754 36059 ft 441 kts 291°
2026-05-06 05:21 37.54888 42.74889 36041 ft 442 kts 291°
2026-05-06 05:21 37.57764 42.68066 36156 ft 445 kts 291°
2026-05-06 05:22 37.60647 42.61226 36045 ft 441 kts 291°
2026-05-06 05:22 37.63523 42.54392 36028 ft 442 kts 291°
2026-05-06 05:23 37.66412 42.47514 35773 ft 442 kts 291°
2026-05-06 05:23 37.67846 42.44093 36062 ft 446 kts 292°
2026-05-06 05:23 37.70735 42.37191 36006 ft 443 kts 292°
2026-05-06 05:24 37.73599 42.30337 36015 ft 442 kts 291°
2026-05-06 05:24 37.76475 42.23436 36023 ft 445 kts 291°
2026-05-06 05:25 37.79354 42.16515 36019 ft 444 kts 291°
2026-05-06 05:25 37.82216 42.09620 36021 ft 444 kts 291°
2026-05-06 05:26 37.85107 42.02636 36009 ft 446 kts 291°
2026-05-06 05:26 37.87971 41.95707 36005 ft 446 kts 291°
2026-05-06 05:27 37.90910 41.88816 36000 ft 450 kts 297°
2026-05-06 05:27 37.94952 41.82578 36013 ft 458 kts 305°
2026-05-06 05:28 37.99177 41.76536 36018 ft 458 kts 305°
2026-05-06 05:28 38.03390 41.70491 36027 ft 458 kts 305°
2026-05-06 05:29 38.07622 41.64400 36015 ft 460 kts 305°
2026-05-06 05:29 38.11856 41.58290 36003 ft 459 kts 305°
2026-05-06 05:30 38.16060 41.52213 35993 ft 459 kts 305°
2026-05-06 05:30 38.20277 41.46102 35992 ft 459 kts 305°
2026-05-06 05:31 38.24474 41.40009 35996 ft 458 kts 306°
2026-05-06 05:31 38.28670 41.33904 36005 ft 460 kts 305°
2026-05-06 05:32 38.32911 41.27724 36025 ft 460 kts 305°
2026-05-06 05:32 38.37103 41.21601 36018 ft 461 kts 305°
2026-05-06 05:33 38.41304 41.15456 36018 ft 461 kts 305°
2026-05-06 05:33 38.45519 41.09278 36018 ft 460 kts 305°
2026-05-06 05:34 38.49668 41.03041 36020 ft 460 kts 304°
2026-05-06 05:34 38.53749 40.96787 36015 ft 460 kts 304°
2026-05-06 05:35 38.57838 40.90516 36002 ft 461 kts 304°
2026-05-06 05:35 38.61956 40.84195 36002 ft 461 kts 304°
2026-05-06 05:36 38.66058 40.77954 35995 ft 461 kts 305°
2026-05-06 05:36 38.70207 40.71694 35991 ft 461 kts 305°
2026-05-06 05:37 38.74352 40.65425 35991 ft 462 kts 305°
2026-05-06 05:37 38.78514 40.59114 36009 ft 461 kts 306°
2026-05-06 05:38 38.82626 40.52868 36005 ft 460 kts 305°
2026-05-06 05:38 38.86749 40.46591 35999 ft 462 kts 305°
2026-05-06 05:39 38.90895 40.40264 35994 ft 463 kts 306°
2026-05-06 05:39 38.95036 40.33935 35984 ft 461 kts 305°
2026-05-06 05:40 38.99152 40.27629 35975 ft 463 kts 305°
2026-05-06 05:40 39.03272 40.21307 35966 ft 463 kts 305°
2026-05-06 05:41 39.07431 40.14910 35986 ft 463 kts 305°
2026-05-06 05:41 39.11554 40.08556 35990 ft 465 kts 305°
2026-05-06 05:42 39.15710 40.02138 35993 ft 465 kts 306°
2026-05-06 05:42 39.19840 39.95749 35988 ft 464 kts 305°
2026-05-06 05:43 39.23964 39.89348 36000 ft 465 kts 306°
2026-05-06 05:43 39.28087 39.82937 36014 ft 466 kts 306°
2026-05-06 05:44 39.32225 39.76490 36020 ft 466 kts 306°
2026-05-06 05:44 39.36362 39.70030 36017 ft 467 kts 306°
2026-05-06 05:45 39.40475 39.63594 36004 ft 469 kts 306°
2026-05-06 05:45 39.44637 39.57070 35997 ft 468 kts 306°
2026-05-06 05:46 39.48754 39.50602 35996 ft 468 kts 306°
2026-05-06 05:46 39.52893 39.44057 35999 ft 469 kts 306°
2026-05-06 05:47 39.56972 39.37484 36001 ft 469 kts 306°
2026-05-06 05:47 39.61057 39.30892 36011 ft 470 kts 305°
2026-05-06 05:48 39.65143 39.24287 36000 ft 469 kts 305°
2026-05-06 05:48 39.69250 39.17635 35995 ft 470 kts 305°
2026-05-06 05:49 39.73322 39.11034 36018 ft 472 kts 306°
2026-05-06 05:49 39.77463 39.04441 36042 ft 472 kts 306°
2026-05-06 05:50 39.81623 38.97810 36054 ft 472 kts 306°
2026-05-06 05:50 39.85762 38.91193 36047 ft 472 kts 306°
2026-05-06 05:51 39.89898 38.84567 36047 ft 473 kts 306°
2026-05-06 05:51 39.94042 38.77913 36049 ft 472 kts 306°
2026-05-06 05:52 39.98141 38.71315 36056 ft 472 kts 306°
2026-05-06 05:52 40.02299 38.64609 36062 ft 474 kts 307°
2026-05-06 05:53 40.06458 38.57885 36055 ft 475 kts 307°
2026-05-06 05:53 40.10601 38.51174 36055 ft 475 kts 307°
2026-05-06 05:54 40.14732 38.44469 36056 ft 475 kts 307°
2026-05-06 05:54 40.18874 38.37729 36070 ft 475 kts 307°
2026-05-06 05:55 40.23043 38.30932 36078 ft 475 kts 306°
2026-05-06 05:55 40.27175 38.24178 36085 ft 476 kts 306°
2026-05-06 05:56 40.31296 38.17372 36066 ft 476 kts 303°
2026-05-06 05:56 40.34333 38.09737 36061 ft 473 kts 290°
2026-05-06 05:57 40.36753 38.01783 36051 ft 473 kts 290°
2026-05-06 05:57 40.39181 37.93733 36046 ft 472 kts 290°
2026-05-06 05:58 40.41582 37.85736 36046 ft 473 kts 290°
2026-05-06 05:58 40.43987 37.77693 36052 ft 473 kts 290°
2026-05-06 05:59 40.46387 37.69642 36054 ft 474 kts 290°
2026-05-06 05:59 40.48775 37.61607 36053 ft 474 kts 290°
2026-05-06 06:00 40.51168 37.53536 36055 ft 474 kts 290°
2026-05-06 06:00 40.53553 37.45467 36056 ft 474 kts 290°
2026-05-06 06:01 40.55931 37.37393 36058 ft 475 kts 290°
2026-05-06 06:01 40.58333 37.29216 36061 ft 475 kts 290°
2026-05-06 06:02 40.60696 37.21145 36068 ft 474 kts 290°
2026-05-06 06:02 40.63060 37.13049 36076 ft 475 kts 290°
2026-05-06 06:03 40.65424 37.04921 36076 ft 475 kts 290°
2026-05-06 06:03 40.67777 36.96812 36076 ft 475 kts 290°
2026-05-06 06:04 40.70128 36.88680 36071 ft 475 kts 290°
2026-05-06 06:04 40.72462 36.80585 36072 ft 475 kts 290°
2026-05-06 06:05 40.74807 36.72423 36075 ft 474 kts 290°
2026-05-06 06:05 40.77128 36.64319 36089 ft 475 kts 290°
2026-05-06 06:06 40.79451 36.56189 36102 ft 474 kts 290°
2026-05-06 06:06 40.81781 36.48006 36107 ft 474 kts 290°
2026-05-06 06:07 40.84078 36.39912 36105 ft 474 kts 291°
2026-05-06 06:07 40.86403 36.31695 36104 ft 475 kts 290°
2026-05-06 06:08 40.88719 36.23484 36100 ft 476 kts 290°
2026-05-06 06:08 40.91023 36.15289 36097 ft 476 kts 290°
2026-05-06 06:09 40.93323 36.07081 36094 ft 476 kts 290°
2026-05-06 06:09 40.95608 35.98901 36088 ft 477 kts 290°
2026-05-06 06:10 40.97895 35.90691 36085 ft 476 kts 290°
2026-05-06 06:10 41.00183 35.82447 36084 ft 476 kts 291°
2026-05-06 06:11 41.02467 35.74199 36084 ft 476 kts 291°
2026-05-06 06:11 41.04734 35.65986 36080 ft 477 kts 291°
2026-05-06 06:12 41.07001 35.57740 36081 ft 477 kts 291°
2026-05-06 06:12 41.09264 35.49486 36074 ft 476 kts 291°
2026-05-06 06:13 41.11504 35.41287 36078 ft 475 kts 291°
2026-05-06 06:13 41.13765 35.32987 36088 ft 475 kts 290°
2026-05-06 06:14 41.16013 35.24707 36087 ft 476 kts 290°
2026-05-06 06:14 41.18245 35.16455 36089 ft 475 kts 290°
2026-05-06 06:15 41.20472 35.08196 36083 ft 476 kts 291°
2026-05-06 06:15 41.22693 34.99932 36084 ft 477 kts 291°
2026-05-06 06:16 41.24907 34.91667 36077 ft 476 kts 291°
2026-05-06 06:16 41.27119 34.83384 36066 ft 476 kts 291°
2026-05-06 06:17 41.29322 34.75121 36060 ft 474 kts 291°
2026-05-06 06:17 41.31516 34.66866 36067 ft 475 kts 291°
2026-05-06 06:18 41.33713 34.58572 36064 ft 474 kts 291°
2026-05-06 06:18 41.35894 34.50308 36059 ft 475 kts 291°
2026-05-06 06:19 41.38085 34.41981 36067 ft 473 kts 291°
2026-05-06 06:19 41.40247 34.33732 36062 ft 473 kts 291°
2026-05-06 06:20 41.42402 34.25429 36064 ft 473 kts 291°
2026-05-06 06:20 41.44535 34.17168 36086 ft 472 kts 291°
2026-05-06 06:21 41.46674 34.08873 36086 ft 472 kts 291°
2026-05-06 06:21 41.48795 34.00636 36093 ft 472 kts 291°
2026-05-06 06:22 41.50913 33.92384 36084 ft 471 kts 291°
2026-05-06 06:22 41.53025 33.84125 36082 ft 470 kts 291°
2026-05-06 06:23 41.55141 33.75826 36077 ft 471 kts 291°
2026-05-06 06:23 41.57241 33.67556 36080 ft 470 kts 292°
2026-05-06 06:24 41.59314 33.59367 36060 ft 469 kts 292°
2026-05-06 06:24 41.61398 33.51125 36066 ft 469 kts 292°
2026-05-06 06:25 41.63481 33.42836 36063 ft 468 kts 292°
2026-05-06 06:26 41.66571 33.30481 36049 ft 468 kts 291°
2026-05-06 06:26 41.68623 33.22244 36048 ft 468 kts 291°
2026-05-06 06:27 41.70668 33.14006 36063 ft 468 kts 292°
2026-05-06 06:27 41.72706 33.05765 36060 ft 466 kts 292°
2026-05-06 06:28 41.74738 32.97524 36057 ft 464 kts 292°
2026-05-06 06:28 41.76752 32.89331 36063 ft 466 kts 292°
2026-05-06 06:29 41.78770 32.81094 36071 ft 466 kts 292°
2026-05-06 06:29 41.80777 32.72868 36065 ft 465 kts 292°
2026-05-06 06:30 41.82772 32.64653 36061 ft 465 kts 292°
2026-05-06 06:30 41.84761 32.56437 36083 ft 465 kts 292°
2026-05-06 06:30 41.85748 32.52348 35944 ft 464 kts 292°
2026-05-06 06:31 41.86749 32.48197 36070 ft 468 kts 292°
2026-05-06 06:31 41.88728 32.39927 36093 ft 467 kts 292°
2026-05-06 06:32 41.90707 32.31642 36079 ft 466 kts 291°
2026-05-06 06:32 41.92706 32.23336 36097 ft 467 kts 291°
2026-05-06 06:33 41.94669 32.15087 36081 ft 466 kts 291°
2026-05-06 06:33 41.96627 32.06813 36095 ft 466 kts 291°
2026-05-06 06:34 41.98567 31.98587 36093 ft 465 kts 291°
2026-05-06 06:34 42.00507 31.90332 36087 ft 465 kts 291°
2026-05-06 06:35 42.02460 31.82005 36096 ft 466 kts 291°
2026-05-06 06:35 42.04385 31.73773 36099 ft 466 kts 291°
2026-05-06 06:36 42.06319 31.65473 36089 ft 464 kts 291°
2026-05-06 06:36 42.08233 31.57227 36091 ft 464 kts 291°
2026-05-06 06:37 42.10144 31.48963 36094 ft 463 kts 291°
2026-05-06 06:37 42.12046 31.40707 36098 ft 462 kts 291°
2026-05-06 06:38 42.13950 31.32417 36091 ft 464 kts 291°
2026-05-06 06:38 42.15830 31.24190 36097 ft 463 kts 291°
2026-05-06 06:39 42.17724 31.15876 36102 ft 463 kts 290°
2026-05-06 06:39 42.19591 31.07648 36103 ft 462 kts 291°
2026-05-06 06:40 42.21463 30.99367 36097 ft 462 kts 290°
2026-05-06 06:40 42.23319 30.91127 36093 ft 462 kts 290°
2026-05-06 06:41 42.25171 30.82874 36089 ft 461 kts 290°
2026-05-06 06:41 42.27010 30.74651 36102 ft 462 kts 290°
2026-05-06 06:42 42.28862 30.66331 36092 ft 462 kts 290°
2026-05-06 06:42 42.30693 30.58078 36081 ft 461 kts 290°
2026-05-06 06:43 42.32517 30.49825 36091 ft 461 kts 290°
2026-05-06 06:43 42.34345 30.41522 36093 ft 461 kts 290°
2026-05-06 06:44 42.36162 30.33235 36095 ft 461 kts 289°
2026-05-06 06:44 42.37980 30.24915 36094 ft 461 kts 289°
2026-05-06 06:45 42.39778 30.16650 36095 ft 462 kts 289°
2026-05-06 06:45 42.41583 30.08325 36094 ft 462 kts 289°
2026-05-06 06:46 42.43377 30.00014 36089 ft 463 kts 289°
2026-05-06 06:46 42.45166 29.91694 36090 ft 461 kts 289°
2026-05-06 06:47 42.47483 29.83633 36094 ft 459 kts 300°
2026-05-06 06:47 42.50497 29.76091 36092 ft 458 kts 301°
2026-05-06 06:48 42.53534 29.68488 36091 ft 458 kts 301°
2026-05-06 06:48 42.56533 29.60940 36090 ft 459 kts 301°
2026-05-06 06:49 42.59567 29.53374 36089 ft 458 kts 303°
2026-05-06 06:49 42.62861 29.45977 36090 ft 459 kts 303°
2026-05-06 06:50 42.66156 29.38559 36090 ft 459 kts 303°
2026-05-06 06:50 42.69454 29.31089 36089 ft 460 kts 302°
2026-05-06 06:51 42.72733 29.23628 36091 ft 461 kts 302°
2026-05-06 06:51 42.75992 29.16183 36093 ft 460 kts 302°
2026-05-06 06:52 42.79250 29.08721 36089 ft 460 kts 302°
2026-05-06 06:52 42.82507 29.01238 36090 ft 460 kts 302°
2026-05-06 06:53 42.85743 28.93784 36085 ft 460 kts 302°
2026-05-06 06:53 42.88986 28.86293 36085 ft 460 kts 302°
2026-05-06 06:54 42.92207 28.78834 36090 ft 460 kts 302°
2026-05-06 06:54 42.95459 28.71285 36089 ft 460 kts 302°
2026-05-06 06:55 42.98669 28.63814 36084 ft 460 kts 302°
2026-05-06 06:55 43.01879 28.56322 36079 ft 458 kts 302°
2026-05-06 06:56 43.05101 28.48784 36079 ft 459 kts 302°
2026-05-06 06:56 43.08292 28.41299 36076 ft 458 kts 302°
2026-05-06 06:57 43.11514 28.33722 36075 ft 457 kts 302°
2026-05-06 06:57 43.14760 28.26070 36073 ft 458 kts 302°
2026-05-06 06:58 43.17939 28.18552 36075 ft 456 kts 302°
2026-05-06 06:58 43.21100 28.11061 36070 ft 457 kts 302°
2026-05-06 06:59 43.24292 28.03476 36072 ft 457 kts 302°
2026-05-06 06:59 43.27450 27.95953 36068 ft 457 kts 302°
2026-05-06 07:00 43.30612 27.88400 36068 ft 457 kts 302°
2026-05-06 07:00 43.33783 27.80804 36067 ft 457 kts 302°
2026-05-06 07:01 43.36918 27.73276 36066 ft 456 kts 302°
2026-05-06 07:01 43.40062 27.65708 36068 ft 456 kts 302°
2026-05-06 07:02 43.43198 27.58138 36059 ft 456 kts 302°
2026-05-06 07:02 43.46331 27.50555 36057 ft 456 kts 302°
2026-05-06 07:03 43.49448 27.42991 36054 ft 456 kts 302°
2026-05-06 07:03 43.52566 27.35404 36049 ft 455 kts 302°
2026-05-06 07:04 43.55703 27.27753 36051 ft 455 kts 302°
2026-05-06 07:04 43.58814 27.20142 36051 ft 455 kts 301°
2026-05-06 07:05 43.61917 27.12533 36052 ft 455 kts 301°
2026-05-06 07:05 43.65001 27.04947 36047 ft 454 kts 302°
2026-05-06 07:06 43.68084 26.97347 36041 ft 454 kts 302°
2026-05-06 07:06 43.71174 26.89707 36030 ft 454 kts 302°
2026-05-06 07:07 43.74245 26.82097 36028 ft 454 kts 302°
2026-05-06 07:07 43.77306 26.74488 36022 ft 454 kts 302°
2026-05-06 07:08 43.80358 26.66880 36018 ft 453 kts 302°
2026-05-06 07:08 43.83399 26.59283 36015 ft 452 kts 302°
2026-05-06 07:09 43.86444 26.51653 36017 ft 452 kts 302°
2026-05-06 07:09 43.89468 26.44058 36013 ft 451 kts 302°
2026-05-06 07:10 43.92501 26.36417 36011 ft 451 kts 301°
2026-05-06 07:10 43.95541 26.28738 36009 ft 451 kts 301°
2026-05-06 07:11 43.98566 26.21077 36008 ft 452 kts 301°
2026-05-06 07:11 44.01983 26.13873 36014 ft 449 kts 307°
2026-05-06 07:12 44.05516 26.06727 36011 ft 449 kts 306°
2026-05-06 07:12 44.09019 25.99560 36007 ft 449 kts 306°
2026-05-06 07:13 44.12554 25.92273 36017 ft 450 kts 306°
2026-05-06 07:13 44.16052 25.85024 36026 ft 449 kts 306°
2026-05-06 07:14 44.19520 25.77812 36022 ft 449 kts 306°
2026-05-06 07:14 44.22993 25.70565 36022 ft 449 kts 306°
2026-05-06 07:15 44.26466 25.63300 36019 ft 448 kts 306°
2026-05-06 07:15 44.29913 25.56068 36023 ft 449 kts 306°
2026-05-06 07:16 44.33357 25.48827 36021 ft 449 kts 306°
2026-05-06 07:16 44.36800 25.41566 36020 ft 449 kts 306°
2026-05-06 07:17 44.40234 25.34306 36022 ft 448 kts 305°
2026-05-06 07:17 44.43683 25.26996 36025 ft 449 kts 305°
2026-05-06 07:18 44.47115 25.19704 36018 ft 449 kts 305°
2026-05-06 07:18 44.50528 25.12433 36017 ft 447 kts 305°
2026-05-06 07:19 44.53950 25.05126 36023 ft 448 kts 305°
2026-05-06 07:19 44.57359 24.97829 36027 ft 449 kts 305°
2026-05-06 07:20 44.60757 24.90534 36023 ft 448 kts 305°
2026-05-06 07:20 44.64153 24.83227 36017 ft 447 kts 304°
2026-05-06 07:21 44.67552 24.75895 36018 ft 448 kts 305°
2026-05-06 07:21 44.70932 24.68583 36021 ft 446 kts 305°
2026-05-06 07:22 44.74305 24.61269 36019 ft 446 kts 305°
2026-05-06 07:22 44.77683 24.53926 36018 ft 446 kts 304°
2026-05-06 07:23 44.81039 24.46613 36020 ft 445 kts 304°
2026-05-06 07:23 44.84377 24.39318 36019 ft 445 kts 304°
2026-05-06 07:24 44.87721 24.31992 36021 ft 444 kts 304°
2026-05-06 07:24 44.91069 24.24639 36018 ft 445 kts 304°
2026-05-06 07:25 44.94403 24.17298 36014 ft 444 kts 304°
2026-05-06 07:25 44.97727 24.09961 36016 ft 444 kts 304°
2026-05-06 07:26 45.01060 24.02584 36021 ft 444 kts 304°
2026-05-06 07:26 45.04360 23.95262 36022 ft 441 kts 304°
2026-05-06 07:27 45.07655 23.87931 36031 ft 442 kts 304°
2026-05-06 07:27 45.10982 23.80511 36046 ft 444 kts 303°
2026-05-06 07:28 45.14301 23.73087 36059 ft 443 kts 303°
2026-05-06 07:28 45.19208 23.62077 36060 ft 443 kts 303°
2026-05-06 07:29 45.22493 23.54683 36074 ft 441 kts 304°
2026-05-06 07:29 45.25764 23.47302 36081 ft 440 kts 303°
2026-05-06 07:30 45.29028 23.39918 36067 ft 441 kts 303°
2026-05-06 07:30 45.32288 23.32522 36068 ft 440 kts 303°
2026-05-06 07:31 45.34998 23.26360 36059 ft 441 kts 303°